SL-14 R/B, 22693

Orbit data source: Space-Track

SL-14 R/B, 22693 is space debris in LEO originally from a launch on Thu, 24 Jun 1993 UTC launched from the Plesetsk Missile And Space Complex (PKMTR). Debris objects in space refer to the collection of defunct objects orbiting the Earth. Examples of debris include non-operational satellites, rocket bodies, and fragments generated from explosions, collisions, or faulty payload assembly.

Loading next visibility...
Identifier
22693, 1993-038G
Orbit
LEO
Country
Flag of CISCIS
Related business
Manufacturer
Yuzhnoe
Mission
Spacecraft
Bus & Motor
S5M, Unknown motor
Mass
1,600 kg wet, 1,600 kg dry
Launch date (UTC)
1993-06-24 (32 years ago)
Launch vehicle
Unknown
Launch site
Plesetsk Missile And Space Complex (PKMTR)
Object type
Payload
Rocket body
Debris
Shape & HBR
Cyl, 1.4 m
Radar Cross Section
7.351 m², Large (>1 m²)

Expand to show TLE details & history
Last TLE update: 13 hours ago

TLE from 13 hours ago
0 SL-14 R/B
1 22693U 93038G   25311.27213894  .00000014  00000-0  20755-4 0  9991
2 22693  82.5823 129.2085 0046841  99.7467  72.6909 12.54832671483180
Epoch: 2025-11-07T06:31Z
TLE epoch observation values (Epoch: 2025-11-07T06:31:52.804Z)
Latitude
6.92138°
Longitude
163.61891°
Altitude
1,435.69 km
Speed
7.149 km/s
True Right ascension
20h 33m 13s
True Declination
6° 53' 02"
Sunlit
Object was in daylight at epoch
Visualization orbit readout
Latitude
Unknown
Longitude
Unknown
Altitude
Unknown
Speed
Unknown
Apparent Right ascension
Unknown
Apparent Declination
Unknown
Sunlit
N/A
Visualization observer readout
Local Sidereal Time
15:52:54
Azimuth
Unknown
Elevation
Unknown
Doppler factor
Unknown
Orbital elements
Apogee altitude
1,478.306 km
Perigee altitude
1,405.048 km
Semi-major axis
7,819.814 km
Eccentricity
0.00468
Inclination
82.5823°
RAAN
129.2085°
Arg. of periapsis
99.7467°
True anomaly
73.20424°
Mean anomaly
72.6909°
Eccentric anomaly
72.94748°
Mean motion
3.13869 °/min
Orbital period
114.7 mins
BSTAR
0.000020755
Loading maneuver chart data...
Computing Atmospheric mass density...
Loading historical data...
Loading historical data...
Loading historical data...
Loading historical data...
Loading historical data...
Loading historical data...
Loading historical data...

Documentation

Showing up to 5 results
|